Time,TemperatureF,DewpointF,PressureIn,WindDirection,WindDirectionDegrees,WindSpeedMPH,WindSpeedGustMPH,Humidity,HourlyPrecipIn,Conditions,Clouds,dailyrainin,SoftwareType,DateUTC
2013-02-01 00:00:00,29.2,14.9,29.81,SW,225,1.3,1.6,55,0.00,,,0.00,WUHU216HW,2013-02-01 05:00:00,
2013-02-01 00:01:00,29.0,14.8,29.81,WSW,248,1.8,1.8,55,0.00,,,0.00,WUHU216HW,2013-02-01 05:01:00,
2013-02-01 00:03:00,29.0,14.8,29.81,WSW,248,0.4,1.8,55,0.00,,,0.00,WUHU216HW,2013-02-01 05:03:00,
2013-02-01 00:08:00,28.8,14.7,29.80,NW,315,1.8,1.8,55,0.00,,,0.00,WUHU216HW,2013-02-01 05:08:00,
2013-02-01 00:13:00,28.4,14.8,29.80,WNW,293,1.8,2.2,56,0.00,,,0.00,WUHU216HW,2013-02-01 05:13:00,
2013-02-01 00:18:00,28.4,14.8,29.80,WSW,248,0.0,2.2,56,0.00,,,0.00,WUHU216HW,2013-02-01 05:18:00,
2013-02-01 00:23:00,28.4,14.8,29.79,WSW,248,0.2,0.9,56,0.00,,,0.00,WUHU216HW,2013-02-01 05:23:00,
2013-02-01 00:28:00,28.3,14.6,29.80,WSW,248,1.1,1.1,56,0.00,,,0.00,WUHU216HW,2013-02-01 05:28:00,
2013-02-01 00:33:00,28.3,14.6,29.80,SW,225,2.0,2.0,56,0.00,,,0.00,WUHU216HW,2013-02-01 05:33:00,
2013-02-01 00:38:00,28.3,14.9,29.80,SSW,203,0.4,2.0,57,0.00,,,0.00,WUHU216HW,2013-02-01 05:38:00,
2013-02-01 00:43:00,28.1,14.8,29.80,South,180,0.2,2.0,57,0.00,,,0.00,WUHU216HW,2013-02-01 05:43:00,
2013-02-01 00:48:00,27.9,14.6,29.80,South,180,0.0,1.1,57,0.00,,,0.00,WUHU216HW,2013-02-01 05:48:00,
2013-02-01 00:54:00,27.7,14.9,29.79,SSE,158,0.0,0.0,58,0.00,,,0.00,WUHU216HW,2013-02-01 05:54:00,
2013-02-01 00:59:00,27.4,14.5,29.79,SSE,158,0.0,0.4,58,0.00,,,0.00,WUHU216HW,2013-02-01 05:59:00,
2013-02-01 01:04:00,27.0,14.5,29.79,SSE,158,0.7,0.7,59,0.00,,,0.00,WUHU216HW,2013-02-01 06:04:00,
2013-02-01 01:09:00,26.8,14.3,29.79,South,180,0.9,1.3,59,0.00,,,0.00,WUHU216HW,2013-02-01 06:09:00,
2013-02-01 01:14:00,26.8,15.1,29.80,WSW,248,0.0,1.3,61,0.00,,,0.00,WUHU216HW,2013-02-01 06:14:00,
2013-02-01 01:19:00,26.6,14.9,29.79,South,180,0.4,1.1,61,0.00,,,0.00,WUHU216HW,2013-02-01 06:19:00,
2013-02-01 01:24:00,26.6,14.9,29.79,SSW,203,0.0,1.1,61,0.00,,,0.00,WUHU216HW,2013-02-01 06:24:00,
2013-02-01 01:29:00,26.6,15.3,29.79,SSE,158,0.0,0.0,62,0.00,,,0.00,WUHU216HW,2013-02-01 06:29:00,
2013-02-01 01:34:00,26.5,15.1,29.79,SSE,158,0.0,0.0,62,0.00,,,0.00,WUHU216HW,2013-02-01 06:34:00,
2013-02-01 01:39:00,26.5,15.1,29.79,SSE,158,0.0,0.0,62,0.00,,,0.00,WUHU216HW,2013-02-01 06:39:00,
2013-02-01 01:44:00,26.5,15.1,29.79,SSE,158,0.0,0.0,62,0.00,,,0.00,WUHU216HW,2013-02-01 06:44:00,
2013-02-01 01:49:00,26.3,14.9,29.79,SSE,158,0.0,0.0,62,0.00,,,0.00,WUHU216HW,2013-02-01 06:49:00,
2013-02-01 01:54:00,26.3,15.3,29.79,SSE,158,0.0,0.4,63,0.00,,,0.00,WUHU216HW,2013-02-01 06:54:00,
2013-02-01 01:59:00,26.3,15.7,29.79,SSE,158,0.0,0.4,64,0.00,,,0.00,WUHU216HW,2013-02-01 06:59:00,
2013-02-01 02:04:00,26.3,15.7,29.79,SSE,158,0.0,0.2,64,0.00,,,0.00,WUHU216HW,2013-02-01 07:04:00,
2013-02-01 02:09:00,26.3,16.4,29.78,SSE,158,0.4,0.4,66,0.00,,,0.00,WUHU216HW,2013-02-01 07:09:00,
2013-02-01 02:14:00,26.1,15.8,29.78,SSE,158,0.0,0.4,65,0.00,,,0.00,WUHU216HW,2013-02-01 07:14:00,
2013-02-01 02:19:00,26.1,15.8,29.78,SSE,158,0.0,0.4,65,0.00,,,0.00,WUHU216HW,2013-02-01 07:19:00,
2013-02-01 02:24:00,26.1,15.8,29.78,SSE,158,0.0,0.0,65,0.00,,,0.00,WUHU216HW,2013-02-01 07:24:00,
2013-02-01 02:29:00,26.3,16.0,29.78,SSE,158,0.0,0.0,65,0.00,,,0.00,WUHU216HW,2013-02-01 07:29:00,
2013-02-01 02:34:00,26.3,16.0,29.78,SSE,158,0.0,0.4,65,0.00,,,0.00,WUHU216HW,2013-02-01 07:34:00,
2013-02-01 02:39:00,26.3,16.4,29.78,SSE,158,0.0,0.4,66,0.00,,,0.00,WUHU216HW,2013-02-01 07:39:00,
2013-02-01 02:44:00,26.5,16.6,29.77,SSE,158,0.2,0.4,66,0.00,,,0.00,WUHU216HW,2013-02-01 07:44:00,
2013-02-01 02:49:00,26.5,16.6,29.77,SSE,158,0.4,0.4,66,0.00,,,0.00,WUHU216HW,2013-02-01 07:49:00,
2013-02-01 02:54:00,26.5,16.6,29.76,SSE,158,0.0,0.4,66,0.00,,,0.00,WUHU216HW,2013-02-01 07:54:00,
2013-02-01 02:59:00,26.6,16.7,29.77,SE,135,0.0,0.7,66,0.00,,,0.00,WUHU216HW,2013-02-01 07:59:00,
2013-02-01 03:04:00,26.8,16.9,29.77,SE,135,0.4,0.7,66,0.00,,,0.00,WUHU216HW,2013-02-01 08:04:00,
2013-02-01 03:09:00,27.0,17.1,29.76,SE,135,0.4,0.4,66,0.00,,,0.00,WUHU216HW,2013-02-01 08:09:00,
2013-02-01 03:14:00,27.0,17.1,29.76,SE,135,0.0,0.4,66,0.00,,,0.00,WUHU216HW,2013-02-01 08:14:00,
2013-02-01 03:19:00,27.0,17.1,29.76,SE,135,0.4,0.4,66,0.00,,,0.00,WUHU216HW,2013-02-01 08:19:00,
2013-02-01 03:24:00,27.0,17.1,29.76,SE,135,0.2,0.4,66,0.00,,,0.00,WUHU216HW,2013-02-01 08:24:00,
2013-02-01 03:29:00,27.0,17.1,29.76,SE,135,0.2,0.4,66,0.00,,,0.00,WUHU216HW,2013-02-01 08:29:00,
2013-02-01 03:34:00,27.2,17.3,29.76,SE,135,0.0,0.4,66,0.00,,,0.00,WUHU216HW,2013-02-01 08:34:00,
2013-02-01 03:39:00,27.4,17.8,29.76,NNW,338,0.9,0.9,67,0.00,,,0.00,WUHU216HW,2013-02-01 08:39:00,
2013-02-01 03:44:00,27.4,17.5,29.76,NNE,23,1.1,1.1,66,0.00,,,0.00,WUHU216HW,2013-02-01 08:44:00,
2013-02-01 03:49:00,27.5,17.6,29.76,North,0,1.1,1.8,66,0.00,,,0.00,WUHU216HW,2013-02-01 08:49:00,
2013-02-01 03:54:00,27.5,17.6,29.76,NNW,338,0.0,1.8,66,0.00,,,0.00,WUHU216HW,2013-02-01 08:54:00,
2013-02-01 03:59:00,27.9,18.0,29.77,WNW,293,0.0,1.3,66,0.00,,,0.00,WUHU216HW,2013-02-01 08:59:00,
2013-02-01 04:04:00,28.1,18.2,29.77,NNW,338,0.4,1.3,66,0.00,,,0.00,WUHU216HW,2013-02-01 09:04:00,
2013-02-01 04:09:00,28.1,18.9,29.76,WNW,293,0.4,1.1,68,0.00,,,0.00,WUHU216HW,2013-02-01 09:09:00,
2013-02-01 04:14:00,28.4,20.0,29.76,WNW,293,0.4,1.1,70,0.00,,,0.00,WUHU216HW,2013-02-01 09:14:00,
2013-02-01 04:19:00,28.4,20.0,29.76,WNW,293,0.0,0.9,70,0.00,,,0.00,WUHU216HW,2013-02-01 09:19:00,
2013-02-01 04:24:00,28.4,19.6,29.77,WNW,293,0.0,0.4,69,0.00,,,0.00,WUHU216HW,2013-02-01 09:24:00,
2013-02-01 04:29:00,28.4,19.3,29.77,NW,315,0.0,0.0,68,0.00,,,0.00,WUHU216HW,2013-02-01 09:29:00,
2013-02-01 04:34:00,28.4,18.9,29.78,North,0,1.3,1.3,67,0.00,,,0.00,WUHU216HW,2013-02-01 09:34:00,
2013-02-01 04:39:00,28.4,19.3,29.78,NE,45,5.1,5.1,68,0.00,,,0.00,WUHU216HW,2013-02-01 09:39:00,
2013-02-01 04:44:00,28.6,19.5,29.78,NNE,23,2.7,5.1,68,0.00,,,0.00,WUHU216HW,2013-02-01 09:44:00,
2013-02-01 04:49:00,28.6,20.2,29.79,NNW,338,2.9,5.4,70,0.00,,,0.00,WUHU216HW,2013-02-01 09:49:00,
2013-02-01 04:54:00,28.4,21.8,29.79,NNE,23,5.4,9.4,76,0.00,,,0.00,WUHU216HW,2013-02-01 09:54:00,
2013-02-01 04:59:00,28.1,21.8,29.80,NW,315,4.0,9.4,77,0.00,,,0.00,WUHU216HW,2013-02-01 09:59:00,
2013-02-01 05:04:00,27.7,22.1,29.81,NNW,338,2.9,6.9,79,0.00,,,0.00,WUHU216HW,2013-02-01 10:04:00,
2013-02-01 05:09:00,27.4,23.1,29.82,WNW,293,8.1,8.1,84,0.00,,,0.00,WUHU216HW,2013-02-01 10:09:00,
2013-02-01 05:14:00,25.6,20.5,29.82,NW,315,8.5,12.5,81,0.00,,,0.00,WUHU216HW,2013-02-01 10:14:00,
2013-02-01 05:19:00,25.0,20.4,29.83,NW,315,10.5,12.5,82,0.00,,,0.00,WUHU216HW,2013-02-01 10:19:00,
2013-02-01 05:24:00,25.0,19.4,29.83,NNW,338,6.0,10.5,79,0.00,,,0.00,WUHU216HW,2013-02-01 10:24:00,
2013-02-01 05:29:00,25.0,19.2,29.83,NNW,338,6.0,8.9,78,0.00,,,0.00,WUHU216HW,2013-02-01 10:29:00,
2013-02-01 05:34:00,25.0,17.8,29.84,NNW,338,4.7,7.6,74,0.00,,,0.00,WUHU216HW,2013-02-01 10:34:00,
2013-02-01 05:39:00,25.2,17.4,29.84,North,0,5.8,7.6,72,0.00,,,0.00,WUHU216HW,2013-02-01 10:39:00,
2013-02-01 05:44:00,25.4,17.6,29.84,NW,315,4.7,6.7,72,0.00,,,0.00,WUHU216HW,2013-02-01 10:44:00,
2013-02-01 05:49:00,25.4,17.3,29.84,NW,315,5.8,7.2,71,0.00,,,0.00,WUHU216HW,2013-02-01 10:49:00,
2013-02-01 05:54:00,25.2,17.4,29.84,North,0,4.7,7.6,72,0.00,,,0.00,WUHU216HW,2013-02-01 10:54:00,
2013-02-01 05:59:00,25.2,17.4,29.84,NNW,338,3.8,7.6,72,0.00,,,0.00,WUHU216HW,2013-02-01 10:59:00,
2013-02-01 06:04:00,25.0,16.9,29.84,NNW,338,5.4,9.2,71,0.00,,,0.00,WUHU216HW,2013-02-01 11:04:00,
2013-02-01 06:09:00,25.0,16.6,29.84,NNW,338,5.1,9.2,70,0.00,,,0.00,WUHU216HW,2013-02-01 11:09:00,
2013-02-01 06:14:00,25.0,16.6,29.85,WNW,293,3.6,5.8,70,0.00,,,0.00,WUHU216HW,2013-02-01 11:14:00,
2013-02-01 06:19:00,25.0,16.6,29.85,NNW,338,3.4,5.1,70,0.00,,,0.00,WUHU216HW,2013-02-01 11:19:00,
2013-02-01 06:24:00,25.0,15.6,29.86,NNW,338,4.7,4.7,67,0.00,,,0.00,WUHU216HW,2013-02-01 11:24:00,
2013-02-01 06:29:00,25.0,15.6,29.86,NNW,338,3.1,4.7,67,0.00,,,0.00,WUHU216HW,2013-02-01 11:29:00,
2013-02-01 06:34:00,24.8,14.7,29.87,NW,315,3.1,6.9,65,0.00,,,0.00,WUHU216HW,2013-02-01 11:34:00,
2013-02-01 06:39:00,24.8,14.3,29.87,NW,315,4.0,6.9,64,0.00,,,0.00,WUHU216HW,2013-02-01 11:39:00,
2013-02-01 06:44:00,24.8,12.5,29.87,NNW,338,6.3,6.3,59,0.00,,,0.00,WUHU216HW,2013-02-01 11:44:00,
2013-02-01 06:49:00,24.8,12.5,29.87,NW,315,5.6,6.3,59,0.00,,,0.00,WUHU216HW,2013-02-01 11:49:00,
2013-02-01 06:54:00,24.8,12.5,29.88,NNW,338,2.0,6.3,59,0.00,,,0.00,WUHU216HW,2013-02-01 11:54:00,
2013-02-01 06:59:00,24.7,12.3,29.88,NNW,338,2.2,5.6,59,0.00,,,0.00,WUHU216HW,2013-02-01 11:59:00,
2013-02-01 07:04:00,24.3,12.0,29.89,WNW,293,6.9,6.9,59,0.00,,,0.00,WUHU216HW,2013-02-01 12:04:00,
2013-02-01 07:09:00,24.3,12.0,29.89,NW,315,10.3,10.3,59,0.00,,,0.00,WUHU216HW,2013-02-01 12:09:00,
2013-02-01 07:14:00,24.1,11.4,29.90,WNW,293,8.3,10.3,58,0.00,,,0.00,WUHU216HW,2013-02-01 12:14:00,
2013-02-01 07:19:00,24.1,11.8,29.91,North,0,6.7,8.3,59,0.00,,,0.00,WUHU216HW,2013-02-01 12:19:00,
2013-02-01 07:24:00,23.9,11.3,29.91,NNW,338,2.5,7.6,58,0.00,,,0.00,WUHU216HW,2013-02-01 12:24:00,
2013-02-01 07:29:00,23.9,11.3,29.91,NNW,338,3.1,7.6,58,0.00,,,0.00,WUHU216HW,2013-02-01 12:29:00,
2013-02-01 07:34:00,23.8,11.1,29.92,NNE,23,8.3,8.3,58,0.00,,,0.00,WUHU216HW,2013-02-01 12:34:00,
2013-02-01 07:39:00,23.4,9.1,29.93,NNW,338,8.5,12.1,54,0.00,,,0.00,WUHU216HW,2013-02-01 12:39:00,
2013-02-01 07:44:00,23.2,8.6,29.93,NNW,338,5.6,13.6,53,0.00,,,0.00,WUHU216HW,2013-02-01 12:44:00,
2013-02-01 07:49:00,23.2,8.2,29.94,West,270,6.0,13.6,52,0.00,,,0.00,WUHU216HW,2013-02-01 12:49:00,
2013-02-01 07:54:00,23.0,8.4,29.94,NW,315,10.3,10.3,53,0.00,,,0.00,WUHU216HW,2013-02-01 12:54:00,
2013-02-01 07:59:00,22.9,7.8,29.95,NNW,338,5.4,10.3,52,0.00,,,0.00,WUHU216HW,2013-02-01 12:59:00,
2013-02-01 08:04:00,22.9,7.8,29.95,NW,315,9.4,13.4,52,0.00,,,0.00,WUHU216HW,2013-02-01 13:04:00,
2013-02-01 08:09:00,22.9,7.4,29.96,NW,315,8.5,13.4,51,0.00,,,0.00,WUHU216HW,2013-02-01 13:09:00,
2013-02-01 08:14:00,22.7,6.8,29.96,NW,315,4.7,11.4,50,0.00,,,0.00,WUHU216HW,2013-02-01 13:14:00,
2013-02-01 08:19:00,22.7,7.2,29.97,North,0,8.9,11.4,51,0.00,,,0.00,WUHU216HW,2013-02-01 13:19:00,
2013-02-01 08:24:00,22.7,7.2,29.97,NW,315,5.8,11.6,51,0.00,,,0.00,WUHU216HW,2013-02-01 13:24:00,
2013-02-01 08:29:00,22.9,7.8,29.97,NNW,338,6.9,11.6,52,0.00,,,0.00,WUHU216HW,2013-02-01 13:29:00,
2013-02-01 08:34:00,22.9,8.2,29.98,NNW,338,8.1,8.5,53,0.00,,,0.00,WUHU216HW,2013-02-01 13:34:00,
2013-02-01 08:39:00,22.7,8.5,29.99,NNW,338,9.6,9.6,54,0.00,,,0.00,WUHU216HW,2013-02-01 13:39:00,
2013-02-01 08:44:00,22.3,8.1,30.00,NW,315,8.1,9.6,54,0.00,,,0.00,WUHU216HW,2013-02-01 13:44:00,
2013-02-01 08:49:00,22.0,6.1,30.00,NNE,23,5.8,10.1,50,0.00,,,0.00,WUHU216HW,2013-02-01 13:49:00,
2013-02-01 08:54:00,22.0,6.9,30.00,NW,315,6.0,10.1,52,0.00,,,0.00,WUHU216HW,2013-02-01 13:54:00,
2013-02-01 08:59:00,22.0,5.7,30.00,NNW,338,5.1,8.9,49,0.00,,,0.00,WUHU216HW,2013-02-01 13:59:00,
2013-02-01 09:04:00,22.1,4.4,30.01,NW,315,6.9,9.2,46,0.00,,,0.00,WUHU216HW,2013-02-01 14:04:00,
2013-02-01 09:09:00,22.1,4.4,30.01,NW,315,10.5,10.5,46,0.00,,,0.00,WUHU216HW,2013-02-01 14:09:00,
2013-02-01 09:14:00,22.3,5.0,30.02,NW,315,5.4,10.5,47,0.00,,,0.00,WUHU216HW,2013-02-01 14:14:00,
2013-02-01 09:19:00,22.3,4.1,30.02,NNW,338,5.4,9.4,45,0.00,,,0.00,WUHU216HW,2013-02-01 14:19:00,
2013-02-01 09:24:00,22.5,4.2,30.02,WNW,293,6.9,9.4,45,0.00,,,0.00,WUHU216HW,2013-02-01 14:24:00,
2013-02-01 09:29:00,22.5,4.2,30.03,NNW,338,6.9,7.4,45,0.00,,,0.00,WUHU216HW,2013-02-01 14:29:00,
2013-02-01 09:34:00,22.7,5.0,30.03,NNW,338,6.3,6.9,46,0.00,,,0.00,WUHU216HW,2013-02-01 14:34:00,
2013-02-01 09:39:00,22.7,4.4,30.03,NW,315,5.6,8.5,45,0.00,,,0.00,WUHU216HW,2013-02-01 14:39:00,
2013-02-01 09:44:00,22.7,4.0,30.03,NNW,338,7.8,8.5,44,0.00,,,0.00,WUHU216HW,2013-02-01 14:44:00,
2013-02-01 09:49:00,22.7,5.0,30.04,NW,315,7.6,13.0,46,0.00,,,0.00,WUHU216HW,2013-02-01 14:49:00,
2013-02-01 09:54:00,22.3,4.1,30.05,NW,315,8.3,13.0,45,0.00,,,0.00,WUHU216HW,2013-02-01 14:54:00,
2013-02-01 09:59:00,22.3,5.0,30.05,WNW,293,4.9,11.4,47,0.00,,,0.00,WUHU216HW,2013-02-01 14:59:00,
2013-02-01 10:04:00,22.7,5.0,30.05,NNW,338,4.5,8.5,46,0.00,,,0.00,WUHU216HW,2013-02-01 15:04:00,
2013-02-01 10:09:00,23.0,5.8,30.05,WNW,293,4.0,8.5,47,0.00,,,0.00,WUHU216HW,2013-02-01 15:09:00,
2013-02-01 10:14:00,22.7,5.4,30.05,NW,315,4.3,11.0,47,0.00,,,0.00,WUHU216HW,2013-02-01 15:14:00,
2013-02-01 10:19:00,23.0,4.8,30.06,NW,315,6.9,11.0,45,0.00,,,0.00,WUHU216HW,2013-02-01 15:19:00,
2013-02-01 10:24:00,23.2,5.4,30.06,NW,315,3.6,8.5,46,0.00,,,0.00,WUHU216HW,2013-02-01 15:24:00,
2013-02-01 10:29:00,23.4,5.6,30.06,WNW,293,3.6,7.8,46,0.00,,,0.00,WUHU216HW,2013-02-01 15:29:00,
2013-02-01 10:34:00,23.6,6.2,30.06,NW,315,7.8,7.8,47,0.00,,,0.00,WUHU216HW,2013-02-01 15:34:00,
2013-02-01 10:39:00,23.0,7.2,30.06,NW,315,7.6,7.8,50,0.00,,,0.00,WUHU216HW,2013-02-01 15:39:00,
2013-02-01 10:44:00,23.0,7.2,30.07,WNW,293,6.5,7.6,50,0.00,,,0.00,WUHU216HW,2013-02-01 15:44:00,
2013-02-01 10:49:00,22.9,8.2,30.07,NW,315,2.7,7.6,53,0.00,,,0.00,WUHU216HW,2013-02-01 15:49:00,
2013-02-01 10:54:00,23.6,8.5,30.07,NW,315,2.7,7.6,52,0.00,,,0.00,WUHU216HW,2013-02-01 15:54:00,
2013-02-01 10:59:00,23.4,7.9,30.08,NNW,338,5.4,8.5,51,0.00,,,0.00,WUHU216HW,2013-02-01 15:59:00,
2013-02-01 11:04:00,23.2,7.4,30.08,NW,315,5.6,8.5,50,0.00,,,0.00,WUHU216HW,2013-02-01 16:04:00,
2013-02-01 11:09:00,23.4,6.6,30.09,NE,45,9.2,9.2,48,0.00,,,0.00,WUHU216HW,2013-02-01 16:09:00,
2013-02-01 11:14:00,22.7,5.0,30.09,NNW,338,7.6,9.8,46,0.00,,,0.00,WUHU216HW,2013-02-01 16:14:00,
2013-02-01 11:19:00,22.5,5.2,30.10,North,0,6.0,12.8,47,0.00,,,0.00,WUHU216HW,2013-02-01 16:19:00,
2013-02-01 11:24:00,22.1,3.4,30.10,NNW,338,7.6,12.8,44,0.00,,,0.00,WUHU216HW,2013-02-01 16:24:00,
2013-02-01 11:29:00,22.5,4.8,30.09,North,0,6.3,9.2,46,0.00,,,0.00,WUHU216HW,2013-02-01 16:29:00,
2013-02-01 11:34:00,22.3,5.0,30.10,NNW,338,6.7,9.4,47,0.00,,,0.00,WUHU216HW,2013-02-01 16:34:00,
2013-02-01 11:39:00,22.7,6.4,30.10,NNW,338,2.2,9.4,49,0.00,,,0.00,WUHU216HW,2013-02-01 16:39:00,
2013-02-01 11:44:00,23.9,7.0,30.10,SSW,203,3.6,8.7,48,0.00,,,0.00,WUHU216HW,2013-02-01 16:44:00,
2013-02-01 11:49:00,24.1,5.2,30.10,NNW,338,6.0,6.0,44,0.00,,,0.00,WUHU216HW,2013-02-01 16:49:00,
2013-02-01 11:54:00,24.1,6.2,30.10,NW,315,5.8,12.8,46,0.00,,,0.00,WUHU216HW,2013-02-01 16:54:00,
2013-02-01 11:59:00,24.1,5.2,30.10,NW,315,4.5,12.8,44,0.00,,,0.00,WUHU216HW,2013-02-01 16:59:00,
2013-02-01 12:04:00,24.3,5.4,30.10,NW,315,6.5,8.5,44,0.00,,,0.00,WUHU216HW,2013-02-01 17:04:00,
2013-02-01 12:09:00,24.8,6.0,30.10,NNW,338,2.5,6.5,44,0.00,,,0.00,WUHU216HW,2013-02-01 17:09:00,
2013-02-01 12:14:00,25.0,6.6,30.10,NNW,338,5.4,6.0,45,0.00,,,0.00,WUHU216HW,2013-02-01 17:14:00,
2013-02-01 12:19:00,25.0,5.6,30.10,NW,315,4.9,7.4,43,0.00,,,0.00,WUHU216HW,2013-02-01 17:19:00,
2013-02-01 12:24:00,24.8,5.0,30.10,WNW,293,6.9,9.2,42,0.00,,,0.00,WUHU216HW,2013-02-01 17:24:00,
2013-02-01 12:29:00,24.8,4.4,30.11,NW,315,8.5,9.4,41,0.00,,,0.00,WUHU216HW,2013-02-01 17:29:00,
2013-02-01 12:34:00,24.3,4.0,30.11,NW,315,11.4,11.4,41,0.00,,,0.00,WUHU216HW,2013-02-01 17:34:00,
2013-02-01 12:39:00,23.9,4.2,30.11,NNW,338,6.9,11.4,42,0.00,,,0.00,WUHU216HW,2013-02-01 17:39:00,
2013-02-01 12:44:00,23.8,3.5,30.11,WSW,248,7.6,9.2,41,0.00,,,0.00,WUHU216HW,2013-02-01 17:44:00,
2013-02-01 12:49:00,23.4,3.6,30.11,NNW,338,6.0,9.2,42,0.00,,,0.00,WUHU216HW,2013-02-01 17:49:00,
2013-02-01 12:54:00,23.2,3.5,30.11,NNW,338,7.8,8.5,42,0.00,,,0.00,WUHU216HW,2013-02-01 17:54:00,
2013-02-01 12:59:00,22.7,4.0,30.11,NNW,338,3.8,10.1,44,0.00,,,0.00,WUHU216HW,2013-02-01 17:59:00,
2013-02-01 13:04:00,23.8,3.5,30.11,NW,315,11.6,11.6,41,0.00,,,0.00,WUHU216HW,2013-02-01 18:04:00,
2013-02-01 13:09:00,24.1,3.8,30.12,NW,315,6.7,11.6,41,0.00,,,0.00,WUHU216HW,2013-02-01 18:09:00,
2013-02-01 13:14:00,23.9,3.6,30.11,WNW,293,6.9,9.4,41,0.00,,,0.00,WUHU216HW,2013-02-01 18:14:00,
2013-02-01 13:19:00,24.3,3.5,30.12,NW,315,8.1,10.1,40,0.00,,,0.00,WUHU216HW,2013-02-01 18:19:00,
2013-02-01 13:24:00,24.5,3.6,30.12,NNW,338,6.9,10.1,40,0.00,,,0.00,WUHU216HW,2013-02-01 18:24:00,
2013-02-01 13:29:00,25.2,4.8,30.11,NNW,338,4.7,8.5,41,0.00,,,0.00,WUHU216HW,2013-02-01 18:29:00,
2013-02-01 13:35:00,25.0,2.3,30.12,NW,315,8.3,11.9,37,0.00,,,0.00,WUHU216HW,2013-02-01 18:35:00,
2013-02-01 13:40:00,24.7,3.2,30.11,North,0,10.3,11.9,39,0.00,,,0.00,WUHU216HW,2013-02-01 18:40:00,
2013-02-01 13:45:00,24.7,3.2,30.12,North,0,5.1,10.3,39,0.00,,,0.00,WUHU216HW,2013-02-01 18:45:00,
2013-02-01 13:50:00,24.8,4.0,30.12,NE,45,3.4,9.4,40,0.00,,,0.00,WUHU216HW,2013-02-01 18:50:00,
2013-02-01 13:55:00,24.8,3.3,30.12,WNW,293,5.4,7.8,39,0.00,,,0.00,WUHU216HW,2013-02-01 18:55:00,
2013-02-01 14:00:00,23.8,1.8,30.12,WNW,293,1.6,8.9,38,0.00,,,0.00,WUHU216HW,2013-02-01 19:00:00,
2013-02-01 14:05:00,23.2,1.9,30.13,NW,315,7.6,9.8,39,0.00,,,0.00,WUHU216HW,2013-02-01 19:05:00,
2013-02-01 14:10:00,23.0,2.3,30.13,NW,315,10.1,10.1,40,0.00,,,0.00,WUHU216HW,2013-02-01 19:10:00,
2013-02-01 14:15:00,23.2,3.0,30.13,North,0,4.0,10.1,41,0.00,,,0.00,WUHU216HW,2013-02-01 19:15:00,
2013-02-01 14:20:00,23.9,3.2,30.13,North,0,7.6,7.6,40,0.00,,,0.00,WUHU216HW,2013-02-01 19:20:00,
2013-02-01 14:25:00,23.8,2.3,30.13,NNW,338,7.2,7.6,39,0.00,,,0.00,WUHU216HW,2013-02-01 19:25:00,
2013-02-01 14:30:00,23.8,3.0,30.14,NNW,338,7.4,7.8,40,0.00,,,0.00,WUHU216HW,2013-02-01 19:30:00,
2013-02-01 14:35:00,23.8,3.5,30.14,WNW,293,3.6,7.8,41,0.00,,,0.00,WUHU216HW,2013-02-01 19:35:00,
2013-02-01 14:40:00,24.1,3.3,30.14,NW,315,9.6,9.6,40,0.00,,,0.00,WUHU216HW,2013-02-01 19:40:00,
2013-02-01 14:45:00,24.3,4.4,30.14,WSW,248,1.3,9.6,42,0.00,,,0.00,WUHU216HW,2013-02-01 19:45:00,
2013-02-01 14:50:00,24.3,4.4,30.14,NW,315,2.5,8.5,42,0.00,,,0.00,WUHU216HW,2013-02-01 19:50:00,
2013-02-01 14:55:00,24.1,3.8,30.14,NNW,338,6.3,6.3,41,0.00,,,0.00,WUHU216HW,2013-02-01 19:55:00,
2013-02-01 15:00:00,23.4,2.7,30.15,WNW,293,6.9,11.9,40,0.00,,,0.00,WUHU216HW,2013-02-01 20:00:00,
2013-02-01 15:05:00,23.2,4.0,30.15,NNW,338,5.4,11.9,43,0.00,,,0.00,WUHU216HW,2013-02-01 20:05:00,
2013-02-01 15:10:00,23.6,3.3,30.15,WSW,248,3.4,8.7,41,0.00,,,0.00,WUHU216HW,2013-02-01 20:10:00,
2013-02-01 15:15:00,23.6,3.8,30.15,WNW,293,3.6,8.7,42,0.00,,,0.00,WUHU216HW,2013-02-01 20:15:00,
2013-02-01 15:20:00,23.9,3.6,30.15,SE,135,3.6,8.9,41,0.00,,,0.00,WUHU216HW,2013-02-01 20:20:00,
2013-02-01 15:25:00,23.8,3.5,30.16,NW,315,8.3,8.9,41,0.00,,,0.00,WUHU216HW,2013-02-01 20:25:00,
2013-02-01 15:30:00,23.8,3.5,30.16,NW,315,3.1,8.3,41,0.00,,,0.00,WUHU216HW,2013-02-01 20:30:00,
2013-02-01 15:35:00,23.8,3.5,30.16,West,270,4.5,6.9,41,0.00,,,0.00,WUHU216HW,2013-02-01 20:35:00,
2013-02-01 15:40:00,23.6,3.3,30.17,NW,315,4.7,6.9,41,0.00,,,0.00,WUHU216HW,2013-02-01 20:40:00,
2013-02-01 15:45:00,23.8,4.0,30.17,North,0,2.2,6.9,42,0.00,,,0.00,WUHU216HW,2013-02-01 20:45:00,
2013-02-01 15:50:00,24.1,4.3,30.17,West,270,4.5,5.4,42,0.00,,,0.00,WUHU216HW,2013-02-01 20:50:00,
2013-02-01 15:55:00,23.8,3.5,30.17,NW,315,5.6,5.6,41,0.00,,,0.00,WUHU216HW,2013-02-01 20:55:00,
2013-02-01 16:00:00,23.2,3.0,30.18,West,270,4.9,6.7,41,0.00,,,0.00,WUHU216HW,2013-02-01 21:00:00,
2013-02-01 16:05:00,23.2,3.0,30.18,NW,315,5.4,10.5,41,0.00,,,0.00,WUHU216HW,2013-02-01 21:05:00,
2013-02-01 16:10:00,23.0,2.8,30.18,West,270,4.5,10.5,41,0.00,,,0.00,WUHU216HW,2013-02-01 21:10:00,
2013-02-01 16:15:00,22.7,2.5,30.18,WNW,293,2.9,6.9,41,0.00,,,0.00,WUHU216HW,2013-02-01 21:15:00,
2013-02-01 16:20:00,22.5,2.8,30.18,WNW,293,6.9,7.8,42,0.00,,,0.00,WUHU216HW,2013-02-01 21:20:00,
2013-02-01 16:25:00,22.3,2.6,30.18,NW,315,3.4,8.1,42,0.00,,,0.00,WUHU216HW,2013-02-01 21:25:00,
2013-02-01 16:30:00,22.3,2.6,30.19,NNW,338,8.7,8.7,42,0.00,,,0.00,WUHU216HW,2013-02-01 21:30:00,
2013-02-01 16:35:00,22.0,2.8,30.19,WNW,293,4.0,8.7,43,0.00,,,0.00,WUHU216HW,2013-02-01 21:35:00,
2013-02-01 16:40:00,22.1,3.4,30.19,NNW,338,4.0,6.9,44,0.00,,,0.00,WUHU216HW,2013-02-01 21:40:00,
2013-02-01 16:45:00,22.1,3.4,30.19,WNW,293,4.5,4.5,44,0.00,,,0.00,WUHU216HW,2013-02-01 21:45:00,
2013-02-01 16:50:00,22.1,3.4,30.20,NW,315,3.4,4.5,44,0.00,,,0.00,WUHU216HW,2013-02-01 21:50:00,
2013-02-01 16:55:00,22.1,3.4,30.19,NW,315,2.2,3.8,44,0.00,,,0.00,WUHU216HW,2013-02-01 21:55:00,
2013-02-01 17:00:00,21.8,3.1,30.20,West,270,6.3,6.3,44,0.00,,,0.00,WUHU216HW,2013-02-01 22:00:00,
2013-02-01 17:05:00,21.6,3.0,30.20,NW,315,5.4,6.5,44,0.00,,,0.00,WUHU216HW,2013-02-01 22:05:00,
2013-02-01 17:10:00,21.2,2.6,30.20,WNW,293,4.0,7.6,44,0.00,,,0.00,WUHU216HW,2013-02-01 22:10:00,
2013-02-01 17:15:00,21.1,2.9,30.20,NW,315,5.4,7.6,45,0.00,,,0.00,WUHU216HW,2013-02-01 22:15:00,
2013-02-01 17:20:00,20.9,2.7,30.21,WNW,293,1.8,6.9,45,0.00,,,0.00,WUHU216HW,2013-02-01 22:20:00,
2013-02-01 17:25:00,20.7,2.6,30.21,NW,315,5.6,7.6,45,0.00,,,0.00,WUHU216HW,2013-02-01 22:25:00,
2013-02-01 17:30:00,20.5,3.3,30.21,WNW,293,2.9,7.6,47,0.00,,,0.00,WUHU216HW,2013-02-01 22:30:00,
2013-02-01 17:35:00,20.3,2.7,30.21,NW,315,4.0,5.6,46,0.00,,,0.00,WUHU216HW,2013-02-01 22:35:00,
2013-02-01 17:42:00,20.2,2.5,30.22,NW,315,6.9,6.9,46,0.00,,,0.00,WUHU216HW,2013-02-01 22:42:00,
2013-02-01 17:47:00,20.0,2.4,30.22,WNW,293,4.3,7.4,46,0.00,,,0.00,WUHU216HW,2013-02-01 22:47:00,
2013-02-01 17:52:00,19.8,2.3,30.22,WNW,293,6.5,7.4,46,0.00,,,0.00,WUHU216HW,2013-02-01 22:52:00,
2013-02-01 17:57:00,19.6,2.5,30.22,NW,315,4.7,6.5,47,0.00,,,0.00,WUHU216HW,2013-02-01 22:57:00,
2013-02-01 18:02:00,19.6,2.5,30.22,NW,315,5.4,6.3,47,0.00,,,0.00,WUHU216HW,2013-02-01 23:02:00,
2013-02-01 18:07:00,19.4,2.3,30.22,SW,225,2.5,5.8,47,0.00,,,0.00,WUHU216HW,2013-02-01 23:07:00,
2013-02-01 18:12:00,19.4,1.9,30.23,NNW,338,4.9,7.4,46,0.00,,,0.00,WUHU216HW,2013-02-01 23:12:00,
2013-02-01 18:17:00,19.3,2.3,30.23,NW,315,4.0,7.4,47,0.00,,,0.00,WUHU216HW,2013-02-01 23:17:00,
2013-02-01 18:22:00,19.1,2.5,30.23,WNW,293,4.7,6.5,48,0.00,,,0.00,WUHU216HW,2013-02-01 23:22:00,
2013-02-01 18:27:00,19.1,2.1,30.23,WNW,293,3.8,6.5,47,0.00,,,0.00,WUHU216HW,2013-02-01 23:27:00,
2013-02-01 18:32:00,19.1,2.5,30.23,NW,315,4.3,6.3,48,0.00,,,0.00,WUHU216HW,2013-02-01 23:32:00,
2013-02-01 18:37:00,18.9,2.3,30.23,NNW,338,6.5,6.5,48,0.00,,,0.00,WUHU216HW,2013-02-01 23:37:00,
2013-02-01 18:42:00,18.9,2.3,30.23,WSW,248,6.9,6.9,48,0.00,,,0.00,WUHU216HW,2013-02-01 23:42:00,
2013-02-01 18:47:00,18.9,2.3,30.24,NW,315,6.0,8.1,48,0.00,,,0.00,WUHU216HW,2013-02-01 23:47:00,
2013-02-01 18:52:00,18.7,2.2,30.24,WNW,293,2.2,8.1,48,0.00,,,0.00,WUHU216HW,2013-02-01 23:52:00,
2013-02-01 18:57:00,18.7,2.7,30.24,WNW,293,2.5,4.7,49,0.00,,,0.00,WUHU216HW,2013-02-01 23:57:00,
2013-02-01 19:02:00,18.5,2.5,30.25,West,270,0.0,4.0,49,0.00,,,0.00,WUHU216HW,2013-02-02 00:02:00,
2013-02-01 19:07:00,18.4,3.3,30.26,NNW,338,2.5,2.7,51,0.00,,,0.00,WUHU216HW,2013-02-02 00:07:00,
2013-02-01 19:12:00,18.4,2.3,30.26,WNW,293,4.9,5.4,49,0.00,,,0.00,WUHU216HW,2013-02-02 00:12:00,
2013-02-01 19:17:00,18.4,2.3,30.26,NW,315,0.4,5.4,49,0.00,,,0.00,WUHU216HW,2013-02-02 00:17:00,
2013-02-01 19:22:00,18.4,2.8,30.26,West,270,1.3,3.6,50,0.00,,,0.00,WUHU216HW,2013-02-02 00:22:00,
2013-02-01 19:27:00,18.4,2.8,30.26,South,180,4.7,5.6,50,0.00,,,0.00,WUHU216HW,2013-02-02 00:27:00,
2013-02-01 19:32:00,18.4,3.3,30.26,WNW,293,0.2,5.6,51,0.00,,,0.00,WUHU216HW,2013-02-02 00:32:00,
2013-02-01 19:37:00,18.4,3.3,30.26,WNW,293,0.4,4.5,51,0.00,,,0.00,WUHU216HW,2013-02-02 00:37:00,
2013-02-01 19:42:00,18.0,3.7,30.26,WNW,293,2.7,2.7,53,0.00,,,0.00,WUHU216HW,2013-02-02 00:42:00,
2013-02-01 19:47:00,18.0,2.9,30.26,NNW,338,2.5,4.0,51,0.00,,,0.00,WUHU216HW,2013-02-02 00:47:00,
2013-02-01 19:52:00,17.8,2.7,30.27,NNW,338,0.4,4.0,51,0.00,,,0.00,WUHU216HW,2013-02-02 00:52:00,
2013-02-01 19:57:00,17.8,2.7,30.27,NW,315,1.1,2.5,51,0.00,,,0.00,WUHU216HW,2013-02-02 00:57:00,
2013-02-01 20:02:00,17.8,2.7,30.27,NW,315,0.7,1.8,51,0.00,,,0.00,WUHU216HW,2013-02-02 01:02:00,
2013-02-01 20:07:00,17.6,2.5,30.27,West,270,1.6,1.8,51,0.00,,,0.00,WUHU216HW,2013-02-02 01:07:00,
2013-02-01 20:12:00,17.6,2.5,30.27,NW,315,1.6,2.0,51,0.00,,,0.00,WUHU216HW,2013-02-02 01:12:00,
2013-02-01 20:17:00,17.5,2.4,30.27,NW,315,1.1,2.0,51,0.00,,,0.00,WUHU216HW,2013-02-02 01:17:00,
2013-02-01 20:22:00,17.3,2.3,30.27,WNW,293,1.8,1.8,51,0.00,,,0.00,WUHU216HW,2013-02-02 01:22:00,
2013-02-01 20:27:00,17.3,2.3,30.27,NW,315,2.7,2.7,51,0.00,,,0.00,WUHU216HW,2013-02-02 01:27:00,
2013-02-01 20:32:00,17.3,2.3,30.27,NW,315,2.2,3.4,51,0.00,,,0.00,WUHU216HW,2013-02-02 01:32:00,
2013-02-01 20:37:00,17.3,2.3,30.27,NNW,338,0.9,3.4,51,0.00,,,0.00,WUHU216HW,2013-02-02 01:37:00,
2013-02-01 20:42:00,17.1,2.1,30.28,WNW,293,1.6,2.0,51,0.00,,,0.00,WUHU216HW,2013-02-02 01:42:00,
2013-02-01 20:47:00,17.1,2.1,30.28,NW,315,2.9,4.0,51,0.00,,,0.00,WUHU216HW,2013-02-02 01:47:00,
2013-02-01 20:52:00,17.1,2.1,30.28,NW,315,1.6,4.0,51,0.00,,,0.00,WUHU216HW,2013-02-02 01:52:00,
2013-02-01 20:57:00,16.9,1.9,30.28,NW,315,2.5,3.4,51,0.00,,,0.00,WUHU216HW,2013-02-02 01:57:00,
2013-02-01 21:02:00,16.9,2.7,30.28,NNW,338,2.5,2.7,53,0.00,,,0.00,WUHU216HW,2013-02-02 02:02:00,
2013-02-01 21:07:00,16.9,2.7,30.28,NNW,338,1.8,2.7,53,0.00,,,0.00,WUHU216HW,2013-02-02 02:07:00,
2013-02-01 21:12:00,16.9,1.9,30.28,NNW,338,4.0,4.0,51,0.00,,,0.00,WUHU216HW,2013-02-02 02:12:00,
2013-02-01 21:17:00,16.9,2.3,30.28,NW,315,1.6,4.0,52,0.00,,,0.00,WUHU216HW,2013-02-02 02:17:00,
2013-02-01 21:22:00,16.9,2.3,30.28,NW,315,0.9,1.8,52,0.00,,,0.00,WUHU216HW,2013-02-02 02:22:00,
2013-02-01 21:27:00,16.9,2.3,30.28,NNW,338,1.1,1.1,52,0.00,,,0.00,WUHU216HW,2013-02-02 02:27:00,
2013-02-01 21:32:00,16.7,2.2,30.28,NNW,338,1.1,1.6,52,0.00,,,0.00,WUHU216HW,2013-02-02 02:32:00,
2013-02-01 21:37:00,16.7,1.7,30.29,NW,315,2.2,2.2,51,0.00,,,0.00,WUHU216HW,2013-02-02 02:37:00,
2013-02-01 21:42:00,16.7,2.2,30.29,NNW,338,1.3,2.2,52,0.00,,,0.00,WUHU216HW,2013-02-02 02:42:00,
2013-02-01 21:48:00,16.7,2.2,30.29,NW,315,1.8,1.8,52,0.00,,,0.00,WUHU216HW,2013-02-02 02:48:00,
2013-02-01 21:53:00,16.6,2.3,30.29,NW,315,1.1,1.8,53,0.00,,,0.00,WUHU216HW,2013-02-02 02:53:00,
2013-02-01 21:58:00,16.6,2.0,30.29,NW,315,0.4,1.8,52,0.00,,,0.00,WUHU216HW,2013-02-02 02:58:00,
2013-02-01 22:03:00,16.6,2.3,30.29,WNW,293,0.4,1.8,53,0.00,,,0.00,WUHU216HW,2013-02-02 03:03:00,
2013-02-01 22:08:00,16.4,2.2,30.30,WNW,293,0.4,1.1,53,0.00,,,0.00,WUHU216HW,2013-02-02 03:08:00,
2013-02-01 22:13:00,16.4,2.5,30.30,NW,315,0.4,0.4,54,0.00,,,0.00,WUHU216HW,2013-02-02 03:13:00,
2013-02-01 22:18:00,16.2,2.4,30.30,North,0,0.7,1.1,54,0.00,,,0.00,WUHU216HW,2013-02-02 03:18:00,
2013-02-01 22:23:00,16.2,2.4,30.30,NW,315,0.9,1.6,54,0.00,,,0.00,WUHU216HW,2013-02-02 03:23:00,
2013-02-01 22:28:00,16.2,2.8,30.30,NW,315,0.9,1.6,55,0.00,,,0.00,WUHU216HW,2013-02-02 03:28:00,
2013-02-01 22:33:00,16.2,2.8,30.30,NW,315,1.3,1.6,55,0.00,,,0.00,WUHU216HW,2013-02-02 03:33:00,
2013-02-01 22:38:00,16.2,2.8,30.30,WNW,293,1.8,1.8,55,0.00,,,0.00,WUHU216HW,2013-02-02 03:38:00,
2013-02-01 22:43:00,16.2,2.4,30.30,NNW,338,2.5,2.5,54,0.00,,,0.00,WUHU216HW,2013-02-02 03:43:00,
2013-02-01 22:48:00,16.2,2.4,30.30,NW,315,2.0,3.4,54,0.00,,,0.00,WUHU216HW,2013-02-02 03:48:00,
2013-02-01 22:53:00,16.2,2.4,30.30,NNW,338,1.3,3.4,54,0.00,,,0.00,WUHU216HW,2013-02-02 03:53:00,
2013-02-01 22:58:00,16.2,2.4,30.30,NW,315,1.8,2.7,54,0.00,,,0.00,WUHU216HW,2013-02-02 03:58:00,
2013-02-01 23:03:00,16.2,2.4,30.30,NNW,338,1.3,2.0,54,0.00,,,0.00,WUHU216HW,2013-02-02 04:03:00,
2013-02-01 23:08:00,16.2,2.4,30.30,WNW,293,0.7,2.0,54,0.00,,,0.00,WUHU216HW,2013-02-02 04:08:00,
2013-02-01 23:13:00,16.0,2.6,30.31,NW,315,0.2,1.3,55,0.00,,,0.00,WUHU216HW,2013-02-02 04:13:00,
2013-02-01 23:18:00,15.8,2.4,30.31,WSW,248,0.0,1.1,55,0.00,,,0.00,WUHU216HW,2013-02-02 04:18:00,
2013-02-01 23:23:00,15.8,2.1,30.31,WSW,248,0.4,0.7,54,0.00,,,0.00,WUHU216HW,2013-02-02 04:23:00,
2013-02-01 23:28:00,15.7,2.3,30.31,SW,225,0.2,0.7,55,0.00,,,0.00,WUHU216HW,2013-02-02 04:28:00,
2013-02-01 23:33:00,15.5,2.1,30.31,West,270,0.0,0.7,55,0.00,,,0.00,WUHU216HW,2013-02-02 04:33:00,
2013-02-01 23:38:00,15.5,2.1,30.31,SW,225,0.0,0.2,55,0.00,,,0.00,WUHU216HW,2013-02-02 04:38:00,
2013-02-01 23:43:00,15.3,1.9,30.31,South,180,0.4,0.4,55,0.00,,,0.00,WUHU216HW,2013-02-02 04:43:00,
2013-02-01 23:48:00,15.3,2.4,30.31,South,180,0.0,0.7,56,0.00,,,0.00,WUHU216HW,2013-02-02 04:48:00,
2013-02-01 23:53:00,15.3,2.4,30.31,South,180,0.0,0.7,56,0.00,,,0.00,WUHU216HW,2013-02-02 04:53:00,
2013-02-01 23:58:00,15.1,2.2,30.31,South,180,0.0,0.2,56,0.00,,,0.00,WUHU216HW,2013-02-02 04:58:00,